| time (UTC) | temp F | wind direction | speed MPH | gust MPH | rain 1hr in | rain 24hr in | rain mn in | humidity % | barometer mb |
| 20260901155903 | 90 | 44 | 1.0 | 3.0 | 0.00 | 0.04 | 0.00 | 58 | 1021.0 |
| 20260901154905 | 90 | 100 | 1.0 | 3.0 | 0.00 | 0.04 | 0.00 | 59 | 1021.0 |
| 20260901153904 | 90 | 240 | 0.0 | 2.0 | 0.00 | 0.04 | 0.00 | 57 | 1021.0 |
| 20260901152904 | 89 | 95 | 2.0 | 3.0 | 0.00 | 0.04 | 0.00 | 60 | 1020.9 |
| 20260901152404 | 89 | 68 | 1.0 | 2.0 | 0.00 | 0.04 | 0.00 | 60 | 1020.9 |
| 20260901151903 | 89 | 152 | 1.0 | 2.0 | 0.00 | 0.04 | 0.00 | 59 | 1020.9 |
| 20260901151404 | 89 | 159 | 1.0 | 3.0 | 0.00 | 0.04 | 0.00 | 58 | 1020.9 |
| 20260901150904 | 88 | 77 | 1.0 | 3.0 | 0.00 | 0.04 | 0.00 | 59 | 1020.9 |
| 20260901150403 | 88 | 185 | 0.0 | 0.0 | 0.00 | 0.04 | 0.00 | 59 | 1020.9 |
| 20260901145905 | 87 | 179 | 0.0 | 0.0 | 0.00 | 0.04 | 0.00 | 59 | 1020.9 |
| 20260901144405 | 86 | 160 | 0.0 | 0.0 | 0.00 | 0.04 | 0.00 | 63 | 1020.9 |
| 20260901143904 | 85 | 96 | 0.0 | 0.0 | 0.00 | 0.04 | 0.00 | 64 | 1020.9 |
| 20260901143403 | 85 | 96 | 0.0 | 0.0 | 0.00 | 0.04 | 0.00 | 65 | 1020.9 |
| 20260901142905 | 85 | 103 | 0.0 | 0.0 | 0.00 | 0.04 | 0.00 | 68 | 1020.9 |
| 20260901141904 | 84 | 135 | 0.0 | 0.0 | 0.00 | 0.04 | 0.00 | 70 | 1020.9 |
| 20260901141405 | 84 | 94 | 0.0 | 0.0 | 0.00 | 0.04 | 0.00 | 72 | 1020.9 |
| 20260901140403 | 83 | 94 | 0.0 | 0.0 | 0.00 | 0.04 | 0.00 | 72 | 1020.9 |
| 20260901135905 | 82 | 232 | 0.0 | 0.0 | 0.00 | 0.04 | 0.00 | 74 | 1020.9 |
| 20260901135404 | 82 | 232 | 0.0 | 0.0 | 0.00 | 0.04 | 0.00 | 73 | 1020.9 |
| 20260901134904 | 82 | 232 | 0.0 | 0.0 | 0.00 | 0.04 | 0.00 | 75 | 1020.9 |
| 20260901134405 | 81 | 232 | 0.0 | 0.0 | 0.00 | 0.04 | 0.00 | 78 | 1020.9 |
| 20260901133904 | 80 | 232 | 0.0 | 0.0 | 0.00 | 0.04 | 0.00 | 79 | 1020.9 |
| 20260901133404 | 79 | 232 | 0.0 | 0.0 | 0.00 | 0.04 | 0.00 | 80 | 1020.9 |
| 20260901132905 | 78 | 232 | 0.0 | 0.0 | 0.00 | 0.04 | 0.00 | 81 | 1020.9 |
| 20260901132403 | 77 | 232 | 0.0 | 0.0 | 0.00 | 0.04 | 0.00 | 83 | 1020.9 |
| 20260901131904 | 76 | 232 | 0.0 | 0.0 | 0.00 | 0.04 | 0.00 | 84 | 1020.9 |
| 20260901131405 | 75 | 232 | 0.0 | 0.0 | 0.00 | 0.04 | 0.00 | 87 | 1020.8 |
| 20260901130404 | 73 | 232 | 0.0 | 0.0 | 0.00 | 0.04 | 0.00 | 92 | 1020.8 |
| 20260901125905 | 73 | 232 | 0.0 | 0.0 | 0.00 | 0.04 | 0.00 | 93 | 1020.7 |
| 20260901125404 | 72 | 232 | 0.0 | 0.0 | 0.00 | 0.04 | 0.00 | 93 | 1020.7 |
| 20260901124904 | 72 | 232 | 0.0 | 0.0 | 0.00 | 0.04 | 0.00 | 94 | 1020.7 |
| 20260901124403 | 71 | 232 | 0.0 | 0.0 | 0.00 | 0.04 | 0.00 | 94 | 1020.7 |
| 20260901123905 | 71 | 232 | 0.0 | 0.0 | 0.00 | 0.04 | 0.00 | 94 | 1020.5 |
| 20260901122904 | 70 | 232 | 0.0 | 0.0 | 0.00 | 0.04 | 0.00 | 94 | 1020.5 |
| 20260901122405 | 70 | 232 | 0.0 | 0.0 | 0.00 | 0.04 | 0.00 | 94 | 1020.5 |
| 20260901121903 | 70 | 232 | 0.0 | 0.0 | 0.00 | 0.04 | 0.00 | 94 | 1020.5 |
| 20260901121403 | 69 | 232 | 0.0 | 0.0 | 0.00 | 0.04 | 0.00 | 94 | 1020.3 |
| 20260901120905 | 69 | 232 | 0.0 | 0.0 | 0.00 | 0.04 | 0.00 | 94 | 1020.3 |
| 20260901120403 | 69 | 232 | 0.0 | 0.0 | 0.00 | 0.04 | 0.00 | 93 | 1020.3 |
| 20260901115904 | 69 | 232 | 0.0 | 0.0 | 0.00 | 0.04 | 0.00 | 93 | 1020.3 |
| 20260901115405 | 69 | 232 | 0.0 | 0.0 | 0.00 | 0.04 | 0.00 | 93 | 1020.3 |
| 20260901114904 | 69 | 232 | 0.0 | 0.0 | 0.00 | 0.04 | 0.00 | 93 | 1020.3 |
| 20260901113906 | 69 | 232 | 0.0 | 0.0 | 0.00 | 0.04 | 0.00 | 93 | 1020.0 |
| 20260901112405 | 69 | 232 | 0.0 | 0.0 | 0.00 | 0.04 | 0.00 | 93 | 1019.8 |
| 20260901111904 | 69 | 232 | 0.0 | 0.0 | 0.00 | 0.04 | 0.00 | 93 | 1019.8 |
| 20260901111404 | 69 | 232 | 0.0 | 0.0 | 0.00 | 0.04 | 0.00 | 93 | 1019.6 |
| 20260901110905 | 69 | 232 | 0.0 | 0.0 | 0.00 | 0.04 | 0.00 | 93 | 1019.6 |
| 20260901105405 | 69 | 232 | 0.0 | 0.0 | 0.00 | 0.04 | 0.00 | 93 | 1019.5 |
| 20260901104904 | 69 | 232 | 0.0 | 0.0 | 0.00 | 0.04 | 0.00 | 93 | 1019.5 |
| 20260901104404 | 69 | 232 | 0.0 | 0.0 | 0.00 | 0.04 | 0.00 | 93 | 1019.5 |
| 20260901103904 | 69 | 232 | 0.0 | 0.0 | 0.00 | 0.04 | 0.00 | 93 | 1019.5 |
| 20260901103405 | 69 | 232 | 0.0 | 0.0 | 0.00 | 0.04 | 0.00 | 93 | 1019.5 |
| 20260901102904 | 69 | 232 | 0.0 | 0.0 | 0.00 | 0.04 | 0.00 | 93 | 1019.5 |
| 20260901102403 | 69 | 232 | 0.0 | 0.0 | 0.00 | 0.04 | 0.00 | 93 | 1019.5 |
| 20260901101906 | 69 | 232 | 0.0 | 0.0 | 0.00 | 0.04 | 0.00 | 93 | 1019.4 |
| 20260901100903 | 69 | 232 | 0.0 | 0.0 | 0.00 | 0.04 | 0.00 | 93 | 1019.4 |
| 20260901100403 | 69 | 232 | 0.0 | 0.0 | 0.00 | 0.04 | 0.00 | 93 | 1019.4 |
| 20260901095903 | 69 | 232 | 0.0 | 0.0 | 0.00 | 0.04 | 0.00 | 93 | 1019.4 |
| 20260901094903 | 69 | 232 | 0.0 | 0.0 | 0.00 | 0.04 | 0.00 | 93 | 1019.4 |
| 20260901094403 | 69 | 232 | 0.0 | 0.0 | 0.00 | 0.04 | 0.00 | 93 | 1018.8 |
| 20260901093902 | 69 | 232 | 0.0 | 0.0 | 0.00 | 0.04 | 0.00 | 92 | 1018.8 |
| 20260901093402 | 69 | 232 | 0.0 | 0.0 | 0.00 | 0.04 | 0.00 | 92 | 1018.8 |
| 20260901092904 | 70 | 232 | 0.0 | 0.0 | 0.00 | 0.04 | 0.00 | 92 | 1018.8 |
| 20260901092402 | 70 | 232 | 0.0 | 0.0 | 0.00 | 0.04 | 0.00 | 92 | 1018.8 |
| 20260901091902 | 70 | 232 | 0.0 | 0.0 | 0.00 | 0.04 | 0.00 | 92 | 1018.8 |
| 20260901091404 | 70 | 232 | 0.0 | 0.0 | 0.00 | 0.04 | 0.00 | 92 | 1018.8 |
| 20260901090902 | 70 | 232 | 0.0 | 0.0 | 0.00 | 0.04 | 0.00 | 92 | 1018.8 |
| 20260901090403 | 70 | 232 | 0.0 | 0.0 | 0.00 | 0.04 | 0.00 | 92 | 1018.8 |
| 20260901085403 | 70 | 232 | 0.0 | 0.0 | 0.00 | 0.04 | 0.00 | 92 | 1018.8 |
| 20260901084404 | 70 | 232 | 0.0 | 0.0 | 0.00 | 0.04 | 0.00 | 92 | 1018.6 |
| 20260901083902 | 70 | 232 | 0.0 | 0.0 | 0.00 | 0.04 | 0.00 | 92 | 1018.6 |
| 20260901083402 | 70 | 232 | 0.0 | 0.0 | 0.00 | 0.04 | 0.00 | 92 | 1018.6 |
| 20260901082402 | 70 | 232 | 0.0 | 0.0 | 0.00 | 0.04 | 0.00 | 92 | 1018.6 |
| 20260901081902 | 70 | 232 | 0.0 | 0.0 | 0.00 | 0.04 | 0.00 | 92 | 1018.6 |
| 20260901080903 | 70 | 232 | 0.0 | 0.0 | 0.00 | 0.04 | 0.00 | 91 | 1018.7 |
| 20260901080402 | 70 | 232 | 0.0 | 0.0 | 0.00 | 0.04 | 0.00 | 92 | 1018.7 |
| 20260901075904 | 70 | 232 | 0.0 | 0.0 | 0.00 | 0.04 | 0.00 | 91 | 1018.7 |
| 20260901075402 | 70 | 232 | 0.0 | 0.0 | 0.00 | 0.04 | 0.00 | 91 | 1018.7 |
| 20260901073902 | 70 | 232 | 0.0 | 0.0 | 0.00 | 0.04 | 0.00 | 91 | 1018.7 |
| 20260901073402 | 70 | 232 | 0.0 | 0.0 | 0.00 | 0.04 | 0.00 | 91 | 1018.6 |
| 20260901072904 | 71 | 232 | 0.0 | 0.0 | 0.00 | 0.04 | 0.00 | 91 | 1018.7 |
| 20260901072402 | 71 | 232 | 0.0 | 0.0 | 0.00 | 0.04 | 0.00 | 91 | 1018.7 |
| 20260901071903 | 71 | 232 | 0.0 | 0.0 | 0.00 | 0.04 | 0.00 | 91 | 1018.7 |
| 20260901071404 | 71 | 232 | 0.0 | 0.0 | 0.00 | 0.04 | 0.00 | 91 | 1019.0 |
| 20260901070903 | 71 | 232 | 0.0 | 0.0 | 0.00 | 0.04 | 0.00 | 91 | 1019.0 |
| 20260901070402 | 71 | 232 | 0.0 | 0.0 | 0.00 | 0.04 | 0.00 | 91 | 1019.0 |
| 20260901065903 | 71 | 232 | 0.0 | 0.0 | 0.00 | 0.04 | 0.00 | 91 | 1019.0 |
| 20260901065403 | 71 | 232 | 0.0 | 0.0 | 0.00 | 0.04 | 0.00 | 91 | 1019.0 |
| 20260901064904 | 71 | 232 | 0.0 | 0.0 | 0.00 | 0.04 | 0.00 | 91 | 1019.0 |
| 20260901064403 | 71 | 232 | 0.0 | 0.0 | 0.00 | 0.04 | 0.00 | 91 | 1019.1 |
| 20260901063903 | 71 | 232 | 0.0 | 0.0 | 0.00 | 0.04 | 0.00 | 90 | 1019.1 |
| 20260901063402 | 71 | 232 | 0.0 | 0.0 | 0.00 | 0.04 | 0.00 | 90 | 1019.0 |
| 20260901061902 | 71 | 232 | 0.0 | 0.0 | 0.00 | 0.04 | 0.00 | 90 | 1019.2 |
| 20260901061404 | 71 | 232 | 0.0 | 0.0 | 0.00 | 0.04 | 0.00 | 90 | 1019.2 |
| 20260901060902 | 71 | 232 | 0.0 | 0.0 | 0.00 | 0.04 | 0.00 | 90 | 1019.2 |
| 20260901060402 | 71 | 232 | 0.0 | 0.0 | 0.00 | 0.04 | 0.00 | 90 | 1019.2 |
| 20260901055904 | 71 | 232 | 0.0 | 0.0 | 0.00 | 0.04 | 0.00 | 90 | 1019.2 |
| 20260901055403 | 71 | 232 | 0.0 | 0.0 | 0.00 | 0.04 | 0.00 | 90 | 1019.2 |
| 20260901054903 | 71 | 232 | 0.0 | 0.0 | 0.00 | 0.04 | 0.00 | 90 | 1019.2 |
| 20260901054403 | 71 | 232 | 0.0 | 0.0 | 0.00 | 0.04 | 0.00 | 89 | 1019.2 |
| 20260901052904 | 72 | 232 | 0.0 | 0.0 | 0.00 | 0.04 | 0.00 | 89 | 1019.2 |
| 20260901052403 | 72 | 232 | 0.0 | 0.0 | 0.00 | 0.04 | 0.00 | 89 | 1019.3 |
| 20260901051903 | 72 | 232 | 0.0 | 0.0 | 0.00 | 0.04 | 0.00 | 89 | 1019.3 |
| 20260901051404 | 72 | 232 | 0.0 | 0.0 | 0.00 | 0.04 | 0.00 | 89 | 1019.2 |
| 20260901045904 | 72 | 232 | 0.0 | 0.0 | 0.00 | 0.04 | 0.00 | 88 | 1019.1 |
| 20260901045402 | 72 | 232 | 0.0 | 0.0 | 0.00 | 0.04 | 0.00 | 88 | 1019.1 |
| 20260901044404 | 72 | 232 | 0.0 | 0.0 | 0.00 | 0.04 | 0.00 | 87 | 1019.0 |
| 20260901043903 | 72 | 232 | 0.0 | 0.0 | 0.00 | 0.04 | 0.00 | 87 | 1019.0 |
| 20260901043402 | 72 | 232 | 0.0 | 0.0 | 0.00 | 0.04 | 0.00 | 87 | 1019.0 |
| 20260901042403 | 72 | 232 | 0.0 | 0.0 | 0.00 | 0.04 | 0.00 | 87 | 1019.0 |
| 20260901041902 | 73 | 232 | 0.0 | 0.0 | 0.00 | 0.04 | 0.00 | 86 | 1019.0 |
| 20260901041404 | 73 | 232 | 0.0 | 0.0 | 0.00 | 0.04 | 0.00 | 86 | 1019.0 |
| 20260901040903 | 73 | 232 | 0.0 | 0.0 | 0.00 | 0.04 | 0.00 | 86 | 1019.0 |
| 20260901040402 | 73 | 232 | 0.0 | 0.0 | 0.00 | 0.04 | 0.00 | 86 | 1019.0 |
| 20260901035904 | 73 | 232 | 0.0 | 0.0 | 0.00 | 0.04 | 0.04 | 86 | 1018.8 |
| 20260901035402 | 73 | 232 | 0.0 | 0.0 | 0.00 | 0.04 | 0.04 | 85 | 1018.8 |
| 20260901034903 | 73 | 232 | 0.0 | 0.0 | 0.00 | 0.04 | 0.04 | 85 | 1018.8 |
| 20260901034404 | 73 | 232 | 0.0 | 0.0 | 0.00 | 0.04 | 0.04 | 86 | 1018.8 |
| 20260901033902 | 73 | 232 | 0.0 | 0.0 | 0.00 | 0.04 | 0.04 | 85 | 1018.9 |
| 20260901033403 | 73 | 232 | 0.0 | 0.0 | 0.00 | 0.04 | 0.04 | 85 | 1018.9 |
| 20260901032904 | 73 | 232 | 0.0 | 0.0 | 0.00 | 0.04 | 0.04 | 85 | 1019.0 |
| 20260901032402 | 73 | 232 | 0.0 | 0.0 | 0.00 | 0.04 | 0.04 | 84 | 1019.0 |
| 20260901031902 | 73 | 232 | 0.0 | 0.0 | 0.00 | 0.04 | 0.04 | 84 | 1019.0 |
| 20260901031403 | 74 | 232 | 0.0 | 0.0 | 0.00 | 0.04 | 0.04 | 84 | 1019.1 |
| 20260901030903 | 74 | 232 | 0.0 | 0.0 | 0.00 | 0.04 | 0.04 | 84 | 1019.1 |
| 20260901025904 | 74 | 232 | 0.0 | 0.0 | 0.00 | 0.04 | 0.04 | 84 | 1019.2 |
| 20260901025403 | 74 | 232 | 0.0 | 0.0 | 0.00 | 0.04 | 0.04 | 83 | 1019.2 |
| 20260901024903 | 74 | 232 | 0.0 | 0.0 | 0.00 | 0.04 | 0.04 | 83 | 1019.2 |
| 20260901024404 | 74 | 232 | 0.0 | 0.0 | 0.00 | 0.04 | 0.04 | 83 | 1019.0 |
| 20260901023903 | 74 | 232 | 0.0 | 0.0 | 0.00 | 0.04 | 0.04 | 83 | 1019.0 |
| 20260901023403 | 74 | 232 | 0.0 | 0.0 | 0.00 | 0.04 | 0.04 | 83 | 1019.0 |
| 20260901022404 | 74 | 232 | 0.0 | 0.0 | 0.00 | 0.04 | 0.04 | 82 | 1019.0 |
| 20260901021903 | 75 | 232 | 0.0 | 0.0 | 0.00 | 0.04 | 0.04 | 82 | 1019.0 |
| 20260901021403 | 75 | 232 | 0.0 | 0.0 | 0.00 | 0.04 | 0.04 | 81 | 1019.1 |
| 20260901020904 | 75 | 232 | 0.0 | 0.0 | 0.00 | 0.04 | 0.04 | 81 | 1019.0 |
| 20260901015903 | 75 | 232 | 0.0 | 0.0 | 0.00 | 0.04 | 0.04 | 80 | 1018.8 |
| 20260901015405 | 76 | 232 | 0.0 | 0.0 | 0.00 | 0.04 | 0.04 | 80 | 1018.8 |
| 20260901014403 | 76 | 232 | 0.0 | 0.0 | 0.00 | 0.04 | 0.04 | 79 | 1018.4 |
| 20260901013903 | 76 | 232 | 0.0 | 1.0 | 0.00 | 0.04 | 0.04 | 79 | 1018.4 |
| 20260901013402 | 76 | 232 | 1.0 | 1.0 | 0.00 | 0.04 | 0.04 | 78 | 1018.4 |
| 20260901012404 | 76 | 232 | 1.0 | 2.0 | 0.00 | 0.04 | 0.04 | 78 | 1018.4 |
| 20260901011902 | 77 | 232 | 0.0 | 1.0 | 0.00 | 0.04 | 0.04 | 77 | 1018.4 |
| 20260901011402 | 77 | 232 | 0.0 | 0.0 | 0.00 | 0.04 | 0.04 | 77 | 1018.2 |
| 20260901010403 | 77 | 232 | 0.0 | 0.0 | 0.00 | 0.04 | 0.04 | 76 | 1018.2 |
| 20260901005902 | 78 | 232 | 0.0 | 0.0 | 0.00 | 0.04 | 0.04 | 75 | 1018.1 |
| 20260901005403 | 78 | 232 | 0.0 | 0.0 | 0.00 | 0.04 | 0.04 | 75 | 1018.1 |
| 20260901004904 | 78 | 232 | 0.0 | 0.0 | 0.00 | 0.04 | 0.04 | 74 | 1018.1 |
| 20260901004403 | 78 | 232 | 0.0 | 0.0 | 0.00 | 0.04 | 0.04 | 74 | 1017.9 |
| 20260901003903 | 79 | 232 | 0.0 | 0.0 | 0.00 | 0.04 | 0.04 | 74 | 1017.9 |
| 20260901003403 | 79 | 232 | 0.0 | 0.0 | 0.00 | 0.04 | 0.04 | 73 | 1017.9 |
| 20260901002904 | 79 | 232 | 0.0 | 0.0 | 0.00 | 0.04 | 0.04 | 73 | 1017.8 |
| 20260901002403 | 79 | 232 | 0.0 | 0.0 | 0.00 | 0.04 | 0.04 | 72 | 1017.8 |
| 20260901001903 | 80 | 232 | 0.0 | 0.0 | 0.00 | 0.04 | 0.04 | 72 | 1017.9 |
| 20260901001404 | 80 | 232 | 0.0 | 0.0 | 0.00 | 0.04 | 0.04 | 71 | 1017.9 |
| 20260901000902 | 80 | 232 | 0.0 | 0.0 | 0.00 | 0.04 | 0.04 | 69 | 1017.9 |
| 20260901000405 | 81 | 232 | 0.0 | 0.0 | 0.00 | 0.04 | 0.04 | 69 | 1017.9 |
| 20260831235903 | 81 | 232 | 0.0 | 0.0 | 0.00 | 0.04 | 0.04 | 69 | 1017.9 |
| 20260831235403 | 81 | 232 | 0.0 | 0.0 | 0.00 | 0.04 | 0.04 | 69 | 1017.9 |
| 20260831234903 | 82 | 232 | 0.0 | 0.0 | 0.00 | 0.04 | 0.04 | 67 | 1017.9 |
| 20260831234403 | 82 | 232 | 0.0 | 0.0 | 0.00 | 0.04 | 0.04 | 68 | 1017.9 |
| 20260831233403 | 83 | 232 | 0.0 | 0.0 | 0.00 | 0.04 | 0.04 | 66 | 1017.9 |
| 20260831232903 | 83 | 232 | 0.0 | 0.0 | 0.00 | 0.04 | 0.04 | 66 | 1017.8 |
| 20260831232404 | 84 | 232 | 0.0 | 0.0 | 0.00 | 0.04 | 0.04 | 66 | 1017.8 |
| 20260831231903 | 84 | 232 | 0.0 | 0.0 | 0.00 | 0.04 | 0.04 | 65 | 1017.9 |
| 20260831231402 | 84 | 232 | 0.0 | 0.0 | 0.00 | 0.04 | 0.04 | 64 | 1017.9 |
| 20260831230904 | 84 | 232 | 0.0 | 0.0 | 0.00 | 0.04 | 0.04 | 64 | 1017.9 |
| 20260831230402 | 85 | 232 | 0.0 | 0.0 | 0.00 | 0.04 | 0.04 | 64 | 1017.9 |
| 20260831225903 | 85 | 232 | 0.0 | 0.0 | 0.00 | 0.04 | 0.04 | 64 | 1018.0 |
| 20260831225404 | 85 | 232 | 0.0 | 0.0 | 0.00 | 0.04 | 0.04 | 63 | 1018.0 |
| 20260831224903 | 86 | 232 | 0.0 | 0.0 | 0.00 | 0.04 | 0.04 | 62 | 1018.0 |
| 20260831224403 | 86 | 232 | 0.0 | 0.0 | 0.00 | 0.04 | 0.04 | 61 | 1018.0 |
| 20260831223904 | 87 | 232 | 0.0 | 0.0 | 0.00 | 0.04 | 0.04 | 60 | 1018.0 |
| 20260831222903 | 89 | 232 | 0.0 | 0.0 | 0.00 | 0.04 | 0.04 | 56 | 1018.1 |
| 20260831222404 | 90 | 232 | 0.0 | 0.0 | 0.00 | 0.04 | 0.04 | 57 | 1018.1 |
| 20260831220903 | 92 | 232 | 0.0 | 1.0 | 0.00 | 0.04 | 0.04 | 53 | 1018.1 |
| 20260831220403 | 92 | 232 | 0.0 | 1.0 | 0.00 | 0.04 | 0.04 | 53 | 1018.1 |
| 20260831215903 | 93 | 232 | 0.0 | 1.0 | 0.00 | 0.04 | 0.04 | 54 | 1018.2 |
| 20260831215404 | 93 | 232 | 0.0 | 1.0 | 0.00 | 0.04 | 0.04 | 56 | 1018.2 |
| 20260831214403 | 94 | 232 | 0.0 | 1.0 | 0.00 | 0.04 | 0.04 | 53 | 1018.4 |
| 20260831213904 | 94 | 232 | 0.0 | 1.0 | 0.00 | 0.04 | 0.04 | 51 | 1018.4 |
| 20260831213403 | 95 | 232 | 0.0 | 2.0 | 0.00 | 0.04 | 0.04 | 49 | 1018.4 |
| 20260831212903 | 95 | 355 | 0.0 | 1.0 | 0.00 | 0.04 | 0.04 | 51 | 1018.6 |
| 20260831212404 | 96 | 355 | 1.0 | 1.0 | 0.00 | 0.04 | 0.04 | 49 | 1018.6 |
| 20260831211403 | 96 | 355 | 0.0 | 1.0 | 0.00 | 0.04 | 0.04 | 50 | 1018.6 |
| 20260831210905 | 97 | 355 | 1.0 | 1.0 | 0.00 | 0.04 | 0.04 | 50 | 1018.6 |
| 20260831210403 | 97 | 355 | 0.0 | 1.0 | 0.00 | 0.04 | 0.04 | 45 | 1018.6 |
| 20260831205404 | 96 | 355 | 1.0 | 2.0 | 0.00 | 0.04 | 0.04 | 41 | 1018.6 |
| 20260831204903 | 97 | 355 | 0.0 | 1.0 | 0.00 | 0.04 | 0.04 | 42 | 1018.8 |
| 20260831204404 | 98 | 355 | 0.0 | 1.0 | 0.00 | 0.04 | 0.04 | 44 | 1018.8 |
| 20260831203903 | 98 | 355 | 0.0 | 1.0 | 0.00 | 0.04 | 0.04 | 47 | 1018.8 |
| 20260831203405 | 97 | 355 | 0.0 | 1.0 | 0.00 | 0.04 | 0.04 | 48 | 1018.8 |
| 20260831202903 | 97 | 355 | 1.0 | 2.0 | 0.00 | 0.04 | 0.04 | 45 | 1019.0 |
| 20260831202403 | 97 | 355 | 0.0 | 2.0 | 0.00 | 0.04 | 0.04 | 44 | 1019.0 |
| 20260831201904 | 96 | 355 | 1.0 | 2.0 | 0.00 | 0.04 | 0.04 | 48 | 1019.0 |
| 20260831201403 | 96 | 355 | 1.0 | 3.0 | 0.00 | 0.04 | 0.04 | 46 | 1019.4 |
| 20260831200903 | 96 | 281 | 1.0 | 3.0 | 0.00 | 0.04 | 0.04 | 44 | 1019.4 |
| 20260831200404 | 96 | 77 | 2.0 | 3.0 | 0.00 | 0.04 | 0.04 | 44 | 1019.4 |
| 20260831195903 | 95 | 10 | 1.0 | 3.0 | 0.00 | 0.04 | 0.04 | 47 | 1019.4 |
| 20260831195403 | 95 | 10 | 1.0 | 2.0 | 0.00 | 0.04 | 0.04 | 50 | 1019.4 |
| 20260831194403 | 94 | 170 | 1.0 | 3.0 | 0.00 | 0.04 | 0.04 | 48 | 1019.6 |
| 20260831193903 | 95 | 45 | 1.0 | 3.0 | 0.00 | 0.04 | 0.04 | 46 | 1019.6 |
| 20260831193405 | 94 | 34 | 1.0 | 3.0 | 0.00 | 0.04 | 0.04 | 48 | 1019.6 |
| 20260831192903 | 93 | 223 | 0.0 | 3.0 | 0.00 | 0.04 | 0.04 | 48 | 1019.7 |
| 20260831192403 | 93 | 234 | 2.0 | 5.0 | 0.04 | 0.04 | 0.04 | 47 | 1019.7 |
| 20260831191403 | 93 | 28 | 1.0 | 2.0 | 0.04 | 0.04 | 0.04 | 52 | 1019.8 |
| 20260831190904 | 93 | 28 | 0.0 | 2.0 | 0.04 | 0.04 | 0.04 | 53 | 1019.8 |
| 20260831190404 | 94 | 46 | 1.0 | 2.0 | 0.04 | 0.04 | 0.04 | 49 | 1019.8 |
| 20260831185903 | 94 | 279 | 1.0 | 2.0 | 0.04 | 0.04 | 0.04 | 55 | 1019.9 |
| 20260831185403 | 94 | 260 | 0.0 | 2.0 | 0.04 | 0.04 | 0.04 | 52 | 1019.9 |
| 20260831184905 | 93 | 334 | 1.0 | 3.0 | 0.04 | 0.04 | 0.04 | 53 | 1019.9 |
| 20260831184403 | 93 | 25 | 2.0 | 3.0 | 0.04 | 0.04 | 0.04 | 53 | 1020.1 |
| 20260831183903 | 93 | 34 | 1.0 | 3.0 | 0.04 | 0.04 | 0.04 | 51 | 1020.1 |
| 20260831183404 | 92 | 200 | 3.0 | 5.0 | 0.04 | 0.04 | 0.04 | 50 | 1020.1 |
| 20260831182903 | 93 | 214 | 2.0 | 3.0 | 0.04 | 0.04 | 0.04 | 50 | 1020.3 |
| 20260831182403 | 93 | 110 | 2.0 | 3.0 | 0.00 | 0.00 | 0.00 | 49 | 1020.2 |
| 20260831180903 | 92 | 4 | 1.0 | 3.0 | 0.00 | 0.00 | 0.00 | 53 | 1020.4 |
| 20260831180405 | 92 | 60 | 1.0 | 2.0 | 0.00 | 0.00 | 0.00 | 55 | 1020.4 |
| 20260831175903 | 92 | 113 | 1.0 | 2.0 | 0.00 | 0.00 | 0.00 | 55 | 1020.5 |
| 20260831175403 | 92 | 272 | 1.0 | 3.0 | 0.00 | 0.00 | 0.00 | 53 | 1020.5 |
| 20260831173903 | 92 | 52 | 1.0 | 3.0 | 0.00 | 0.00 | 0.00 | 53 | 1021.1 |
| 20260831173405 | 92 | 323 | 1.0 | 2.0 | 0.00 | 0.00 | 0.00 | 54 | 1021.1 |
| 20260831172903 | 91 | 17 | 1.0 | 3.0 | 0.00 | 0.00 | 0.00 | 56 | 1021.1 |
| 20260831172403 | 91 | 136 | 2.0 | 3.0 | 0.00 | 0.00 | 0.00 | 54 | 1021.1 |
| 20260831171904 | 90 | 129 | 3.0 | 5.0 | 0.00 | 0.00 | 0.00 | 55 | 1021.1 |
| 20260831171403 | 90 | 83 | 1.0 | 5.0 | 0.00 | 0.00 | 0.00 | 57 | 1021.1 |
| 20260831170903 | 90 | 329 | 1.0 | 2.0 | 0.00 | 0.00 | 0.00 | 57 | 1021.1 |
| 20260831170405 | 89 | 84 | 1.0 | 3.0 | 0.00 | 0.00 | 0.00 | 59 | 1021.1 |
| 20260831165903 | 88 | 77 | 2.0 | 3.0 | 0.00 | 0.00 | 0.00 | 59 | 1021.1 |
| 20260831165403 | 88 | 2 | 1.0 | 3.0 | 0.00 | 0.00 | 0.00 | 67 | 1021.1 |
| 20260831164904 | 87 | 44 | 1.0 | 2.0 | 0.00 | 0.00 | 0.00 | 65 | 1021.1 |
| 20260831164404 | 86 | 253 | 1.0 | 1.0 | 0.00 | 0.00 | 0.00 | 69 | 1021.5 |
| 20260831163404 | 87 | 253 | 0.0 | 0.0 | 0.00 | 0.00 | 0.00 | 68 | 1021.5 |
| 20260831162904 | 87 | 253 | 0.0 | 1.0 | 0.00 | 0.00 | 0.00 | 67 | 1021.5 |
| 20260831162404 | 86 | 253 | 0.0 | 1.0 | 0.00 | 0.00 | 0.00 | 68 | 1021.5 |
| 20260831161905 | 86 | 253 | 0.0 | 3.0 | 0.00 | 0.00 | 0.00 | 66 | 1021.5 |
| 20260831161403 | 86 | 252 | 2.0 | 3.0 | 0.00 | 0.00 | 0.00 | 64 | 1021.5 |
| 20260831160903 | 87 | 261 | 2.0 | 3.0 | 0.00 | 0.00 | 0.00 | 65 | 1021.5 |
| 20260831160404 | 87 | 247 | 1.0 | 3.0 | 0.00 | 0.00 | 0.00 | 65 | 1021.5 |